WZZ979 EPKK-LHBP

Flight info

Callsign WZZ979
Flight time 0h 39m
Altitude 24000
Route BABKO DCT NIDOK/N0361F230 DCT EDEMU
Aircraft A21N/M-SDE1E2E3FGIJ1J4RWXY/LB1

Departure

Time 2026-05-08 08:03
Airport Kraków John Paul II International Airport (EPKK)

Arrival

Time 2026-05-08 08:43
Airport Budapest Liszt Ferenc International Airport (LHBP)
Time Latitude Longitude Altitude Speed Heading
2026-05-08 07:22 50.07479 19.80077 805 ft 0 kts 168°
2026-05-08 07:56 50.07461 19.80083 805 ft 3 kts 167°
2026-05-08 07:56 50.07432 19.80094 805 ft 5 kts 166°
2026-05-08 07:56 50.07416 19.80145 805 ft 7 kts 81°
2026-05-08 07:57 50.07427 19.80227 805 ft 9 kts 77°
2026-05-08 07:57 50.07442 19.80328 805 ft 10 kts 76°
2026-05-08 07:57 50.07503 19.80394 805 ft 12 kts 14°
2026-05-08 07:57 50.07584 19.80421 805 ft 11 kts 359°
2026-05-08 07:58 50.07668 19.80395 805 ft 13 kts 346°
2026-05-08 07:58 50.07762 19.80363 805 ft 15 kts 348°
2026-05-08 07:58 50.07829 19.80341 805 ft 1 kts 347°
2026-05-08 08:01 50.07830 19.80341 805 ft 1 kts 347°
2026-05-08 08:01 50.07858 19.80332 805 ft 7 kts 348°
2026-05-08 08:01 50.07926 19.80309 805 ft 11 kts 348°
2026-05-08 08:01 50.08006 19.80273 805 ft 11 kts 320°
2026-05-08 08:02 50.08009 19.80174 806 ft 5 kts 255°
2026-05-08 08:02 50.08009 19.80170 806 ft 4 kts 255°
2026-05-08 08:02 50.07949 19.79747 806 ft 78 kts 259°
2026-05-08 08:02 50.07782 19.78542 807 ft 145 kts 258°
2026-05-08 08:03 50.07551 19.76878 1167 ft 158 kts 258°
2026-05-08 08:03 50.07305 19.75210 1811 ft 159 kts 257°
2026-05-08 08:03 50.07055 19.73472 2261 ft 173 kts 258°
2026-05-08 08:03 50.06782 19.71543 2741 ft 191 kts 258°
2026-05-08 08:04 50.06487 19.69455 3288 ft 205 kts 258°
2026-05-08 08:04 50.06027 19.67269 3810 ft 224 kts 242°
2026-05-08 08:04 50.04959 19.65399 4303 ft 242 kts 213°
2026-05-08 08:04 50.03329 19.64518 4840 ft 260 kts 182°
2026-05-08 08:05 50.01505 19.64888 5475 ft 269 kts 166°
2026-05-08 08:05 49.99674 19.65612 6294 ft 274 kts 165°
2026-05-08 08:05 49.97816 19.66334 7131 ft 277 kts 166°
2026-05-08 08:05 49.95933 19.67029 7951 ft 280 kts 167°
2026-05-08 08:06 49.94025 19.67710 8747 ft 283 kts 167°
2026-05-08 08:06 49.92089 19.68383 9515 ft 286 kts 167°
2026-05-08 08:06 49.90131 19.69038 10246 ft 291 kts 169°
2026-05-08 08:06 49.88059 19.69295 10628 ft 309 kts 185°
2026-05-08 08:07 49.85949 19.68392 10979 ft 323 kts 206°
2026-05-08 08:07 49.83953 19.66703 11607 ft 329 kts 211°
2026-05-08 08:07 49.81962 19.64907 12385 ft 331 kts 211°
2026-05-08 08:07 49.79964 19.63120 13163 ft 333 kts 210°
2026-05-08 08:08 49.77960 19.61372 13887 ft 337 kts 210°
2026-05-08 08:08 49.75910 19.59602 14618 ft 340 kts 210°
2026-05-08 08:08 49.73839 19.57813 15303 ft 343 kts 210°
2026-05-08 08:08 49.71742 19.56006 15972 ft 346 kts 210°
2026-05-08 08:09 49.69626 19.54193 16634 ft 349 kts 210°
2026-05-08 08:09 49.67489 19.52367 17265 ft 353 kts 210°
2026-05-08 08:09 49.65336 19.50522 17894 ft 356 kts 210°
2026-05-08 08:09 49.63162 19.48668 18511 ft 359 kts 210°
2026-05-08 08:10 49.60970 19.46795 19096 ft 362 kts 210°
2026-05-08 08:10 49.58776 19.44861 19656 ft 365 kts 211°
2026-05-08 08:10 49.56571 19.42879 20226 ft 368 kts 211°
2026-05-08 08:10 49.54352 19.40889 20781 ft 371 kts 211°
2026-05-08 08:11 49.52115 19.38891 21327 ft 373 kts 211°
2026-05-08 08:11 49.49862 19.36884 21843 ft 376 kts 211°
2026-05-08 08:11 49.47586 19.34860 22357 ft 379 kts 211°
2026-05-08 08:11 49.45295 19.32828 22850 ft 381 kts 211°
2026-05-08 08:12 49.42989 19.30782 23330 ft 384 kts 211°
2026-05-08 08:12 49.40671 19.28727 23796 ft 387 kts 211°
2026-05-08 08:12 49.38337 19.26659 24064 ft 388 kts 211°
2026-05-08 08:12 49.36020 19.24611 24114 ft 382 kts 211°
2026-05-08 08:13 49.33717 19.22581 24110 ft 381 kts 211°
2026-05-08 08:13 49.31419 19.20557 24096 ft 381 kts 211°
2026-05-08 08:13 49.29123 19.18538 24090 ft 381 kts 211°
2026-05-08 08:13 49.26818 19.16513 24092 ft 381 kts 211°
2026-05-08 08:14 49.24519 19.14501 24085 ft 381 kts 211°
2026-05-08 08:14 49.22225 19.12490 24090 ft 381 kts 211°
2026-05-08 08:14 49.19920 19.10471 24087 ft 381 kts 211°
2026-05-08 08:14 49.17617 19.08454 24082 ft 381 kts 211°
2026-05-08 08:15 49.15319 19.06441 24082 ft 381 kts 211°
2026-05-08 08:15 49.13018 19.04432 24079 ft 381 kts 211°
2026-05-08 08:15 49.10713 19.02425 24083 ft 381 kts 211°
2026-05-08 08:15 49.08407 19.00415 24081 ft 381 kts 211°
2026-05-08 08:16 49.06110 18.98412 24084 ft 381 kts 211°
2026-05-08 08:16 49.03800 18.96403 24079 ft 381 kts 211°
2026-05-08 08:16 49.01498 18.94401 24074 ft 381 kts 211°
2026-05-08 08:16 48.99198 18.92404 24076 ft 381 kts 211°
2026-05-08 08:17 48.96891 18.90400 24081 ft 381 kts 211°
2026-05-08 08:17 48.94593 18.88401 24082 ft 381 kts 211°
2026-05-08 08:17 48.92258 18.86475 24071 ft 382 kts 206°
2026-05-08 08:17 48.89717 18.85297 24080 ft 385 kts 189°
2026-05-08 08:18 48.87033 18.85334 24072 ft 389 kts 171°
2026-05-08 08:18 48.84471 18.86629 24074 ft 392 kts 153°
2026-05-08 08:18 48.82258 18.89057 24088 ft 395 kts 139°
2026-05-08 08:18 48.80274 18.91961 24092 ft 396 kts 136°
2026-05-08 08:19 48.78317 18.94899 24083 ft 396 kts 137°
2026-05-08 08:19 48.76338 18.97806 24085 ft 396 kts 137°
2026-05-08 08:19 48.74354 19.00668 24075 ft 389 kts 138°
2026-05-08 08:19 48.72401 19.03463 24080 ft 387 kts 138°
2026-05-08 08:20 48.70439 19.06265 24076 ft 387 kts 138°
2026-05-08 08:20 48.68488 19.09058 24075 ft 387 kts 138°
2026-05-08 08:20 48.66527 19.11850 24076 ft 387 kts 138°
2026-05-08 08:20 48.64564 19.14645 24076 ft 387 kts 138°
2026-05-08 08:21 48.62607 19.17427 24075 ft 387 kts 138°
2026-05-08 08:21 48.60641 19.20221 24080 ft 387 kts 138°
2026-05-08 08:21 48.58686 19.23002 24083 ft 387 kts 138°
2026-05-08 08:21 48.56722 19.25781 24079 ft 387 kts 138°
2026-05-08 08:22 48.54755 19.28554 24075 ft 387 kts 139°
2026-05-08 08:22 48.52816 19.31294 23983 ft 385 kts 138°
2026-05-08 08:22 48.50886 19.34021 23721 ft 375 kts 139°
2026-05-08 08:22 48.49008 19.36667 23461 ft 365 kts 139°
2026-05-08 08:23 48.47174 19.39250 23201 ft 359 kts 139°
2026-05-08 08:23 48.45352 19.41815 22949 ft 358 kts 139°
2026-05-08 08:23 48.43537 19.44376 22700 ft 357 kts 139°
2026-05-08 08:23 48.41726 19.46924 22447 ft 355 kts 139°
2026-05-08 08:24 48.39924 19.49456 22194 ft 354 kts 139°
2026-05-08 08:24 48.38125 19.51982 21946 ft 353 kts 139°
2026-05-08 08:24 48.36331 19.54495 21692 ft 352 kts 139°
2026-05-08 08:24 48.34543 19.56995 21448 ft 350 kts 139°
2026-05-08 08:25 48.32763 19.59483 21196 ft 349 kts 139°
2026-05-08 08:25 48.30985 19.61960 20945 ft 348 kts 139°
2026-05-08 08:25 48.29218 19.64425 20694 ft 347 kts 139°
2026-05-08 08:25 48.27455 19.66878 20437 ft 345 kts 139°
2026-05-08 08:26 48.25700 19.69323 20192 ft 344 kts 139°
2026-05-08 08:26 48.23947 19.71763 19907 ft 342 kts 139°
2026-05-08 08:26 48.22213 19.74172 19545 ft 339 kts 139°
2026-05-08 08:26 48.21070 19.75760 19286 ft 337 kts 139°
2026-05-08 08:27 48.19345 19.78108 18892 ft 334 kts 143°
2026-05-08 08:27 48.17363 19.79827 18491 ft 327 kts 164°
2026-05-08 08:27 48.15154 19.80275 18099 ft 318 kts 186°
2026-05-08 08:27 48.12987 19.79779 17733 ft 314 kts 193°
2026-05-08 08:28 48.10859 19.79109 17359 ft 312 kts 194°
2026-05-08 08:28 48.08738 19.78449 16974 ft 311 kts 193°
2026-05-08 08:28 48.06619 19.77821 16617 ft 310 kts 193°
2026-05-08 08:28 48.04498 19.77207 16259 ft 310 kts 193°
2026-05-08 08:29 48.02378 19.76608 15904 ft 310 kts 192°
2026-05-08 08:29 48.00261 19.76019 15556 ft 310 kts 192°
2026-05-08 08:29 47.98143 19.75436 15200 ft 310 kts 192°
2026-05-08 08:29 47.96016 19.74842 14841 ft 311 kts 192°
2026-05-08 08:30 47.93889 19.74251 14472 ft 312 kts 192°
2026-05-08 08:30 47.91747 19.73656 14099 ft 313 kts 192°
2026-05-08 08:30 47.87449 19.72469 13345 ft 315 kts 192°
2026-05-08 08:31 47.85289 19.71871 12970 ft 316 kts 192°
2026-05-08 08:31 47.83125 19.71269 12601 ft 316 kts 192°
2026-05-08 08:31 47.80982 19.70675 12224 ft 310 kts 192°
2026-05-08 08:31 47.78879 19.70094 11840 ft 305 kts 192°
2026-05-08 08:32 47.76807 19.69523 11452 ft 300 kts 192°
2026-05-08 08:32 47.74774 19.68962 11076 ft 296 kts 192°
2026-05-08 08:32 47.72766 19.68419 10709 ft 291 kts 192°
2026-05-08 08:32 47.70778 19.67878 10351 ft 290 kts 192°
2026-05-08 08:33 47.68795 19.67335 9981 ft 290 kts 192°
2026-05-08 08:33 47.66804 19.66788 9595 ft 291 kts 191°
2026-05-08 08:33 47.64821 19.66246 9222 ft 288 kts 191°
2026-05-08 08:33 47.62866 19.65707 8849 ft 284 kts 191°
2026-05-08 08:34 47.60942 19.65181 8485 ft 285 kts 191°
2026-05-08 08:34 47.58993 19.64649 8137 ft 285 kts 191°
2026-05-08 08:34 47.57024 19.64113 7799 ft 284 kts 191°
2026-05-08 08:34 47.55109 19.63590 7454 ft 282 kts 191°
2026-05-08 08:35 47.53193 19.63063 7079 ft 279 kts 191°
2026-05-08 08:35 47.51269 19.62538 6699 ft 276 kts 191°
2026-05-08 08:35 47.49414 19.62035 6339 ft 274 kts 191°
2026-05-08 08:35 47.47537 19.61523 5978 ft 274 kts 191°
2026-05-08 08:36 47.45663 19.61013 5628 ft 274 kts 191°
2026-05-08 08:36 47.43788 19.60502 5286 ft 273 kts 191°
2026-05-08 08:36 47.41929 19.59995 4944 ft 269 kts 191°
2026-05-08 08:36 47.40097 19.59498 4581 ft 266 kts 191°
2026-05-08 08:37 47.38300 19.59009 4342 ft 258 kts 191°
2026-05-08 08:37 47.36577 19.58530 4190 ft 247 kts 193°
2026-05-08 08:37 47.35032 19.57575 3953 ft 239 kts 216°
2026-05-08 08:37 47.33773 19.55964 3714 ft 241 kts 224°
2026-05-08 08:38 47.32580 19.54292 3549 ft 234 kts 224°
2026-05-08 08:38 47.31433 19.52602 3405 ft 234 kts 231°
2026-05-08 08:38 47.30719 19.50479 3261 ft 233 kts 259°
2026-05-08 08:38 47.30826 19.48131 3128 ft 232 kts 291°
2026-05-08 08:39 47.31654 19.46191 2990 ft 219 kts 311°
2026-05-08 08:39 47.32697 19.44629 2847 ft 211 kts 316°
2026-05-08 08:39 47.33754 19.43133 2719 ft 205 kts 315°
2026-05-08 08:39 47.34681 19.41671 2630 ft 188 kts 312°
2026-05-08 08:40 47.35544 19.40290 2421 ft 179 kts 312°
2026-05-08 08:40 47.36367 19.38965 2191 ft 172 kts 312°
2026-05-08 08:40 47.37152 19.37702 1964 ft 162 kts 312°
2026-05-08 08:40 47.37909 19.36482 1777 ft 157 kts 312°
2026-05-08 08:41 47.38640 19.35303 1570 ft 154 kts 313°
2026-05-08 08:41 47.39360 19.34141 1359 ft 153 kts 313°
2026-05-08 08:41 47.40071 19.32983 1152 ft 152 kts 312°
2026-05-08 08:41 47.40783 19.31831 940 ft 151 kts 313°
2026-05-08 08:42 47.41490 19.30683 743 ft 151 kts 313°
2026-05-08 08:42 47.42202 19.29540 535 ft 151 kts 313°
2026-05-08 08:42 47.42886 19.28436 457 ft 133 kts 311°
2026-05-08 08:42 47.43358 19.27670 469 ft 71 kts 312°
2026-05-08 08:43 47.43558 19.27343 478 ft 23 kts 312°
2026-05-08 08:43 47.43666 19.27164 478 ft 24 kts 307°
2026-05-08 08:43 47.43740 19.26944 475 ft 23 kts 285°
2026-05-08 08:43 47.43774 19.26722 467 ft 23 kts 282°
2026-05-08 08:44 47.43800 19.26539 464 ft 16 kts 282°
2026-05-08 08:44 47.43755 19.26419 463 ft 13 kts 216°
2026-05-08 08:44 47.43703 19.26358 462 ft 8 kts 217°
2026-05-08 08:44 47.43647 19.26377 463 ft 10 kts 133°
2026-05-08 08:45 47.43595 19.26464 463 ft 12 kts 131°
2026-05-08 08:45 47.43562 19.26520 463 ft 4 kts 134°
2026-05-08 08:45 47.43543 19.26518 463 ft 4 kts 209°
2026-05-08 08:45 47.43529 19.26502 463 ft 3 kts 221°
2026-05-08 08:46 47.43515 19.26483 463 ft 2 kts 222°
2026-05-08 08:46 47.43511 19.26479 463 ft 0 kts 222°